Regional Weather Roundup
Issued by NWS

Home | Current Version | Previous Version | Text Only | Print | Product List | Glossary On
Versions: 1 2 3 4 5 6 7 8 9 10 11 12 13 14 15 16 17 18 19 20 21 22 23 24 25 26 27 28 29 30 31 32 33 34 35 36 37 38 39 40 41 42 43 44 45 46 47 48 49 50
000
ASHW40 PHFO 020843
RWRHI

WEATHER ROUNDUP FOR HAWAII
NATIONAL WEATHER SERVICE HONOLULU HI
1000 PM HST SUN MAY 01 2016

THIS IS AN AUTOMATED REPORT THAT HAS NOT BEEN QUALITY CONTROLLED.

NOTE..."FAIR" INDICATES FEW OR NO CLOUDS BELOW 12,000 FEET WITH NO
SIGNIFICANT WEATHER AND/OR OBSTRUCTIONS TO VISIBILITY.

* - THESE SITES REPORT LIMITED FIELDS

HIZ001>004-020900-
KAUAI-NIIHAU-

CITY           SKY/WX    TMP DP  RH WIND       PRES   REMARKS
LIHUE APT      MOCLDY    77  68  73 NE16      30.16R
PORT ALLEN*      N/A     75 N/A N/A E14G20      N/A
POIPU*           N/A     75 N/A N/A NE9G18      N/A
PRINCEVILLE*     N/A     75 N/A N/A E9          N/A
KOKOLE POINT*  NOT AVBL
MOLOAA DAIRY*    N/A     73  68  83 E3G12       N/A
WAIMEA HTS*      N/A     72  61  68 NW3         N/A
PUU OPAE*        N/A     64  55  72 CALM        N/A
PUU LUA*       NOT AVBL
MAKAHA RIDGE*    N/A     66  63  88 NE1G7       N/A
$$

HIZ005>011-020900-
OAHU-

CITY           SKY/WX    TMP DP  RH WIND       PRES   REMARKS
HONOLULU       PTCLDY    77  65  66 E14       30.11R
KALAELOA       MOCLDY    75  64  68 NE5       30.13R
KANEOHE MCB    CLOUDY    76  69  79 NE8       30.10S
WHEELER FIELD  FAIR      72  64  78 N3        30.12R
BELLOWS*         N/A    N/A N/A N/A NE16        N/A
KAHUKU*          N/A    N/A N/A N/A VRB8G16     N/A
WHEELER*         N/A    N/A N/A N/A NE1         N/A
WAIANAE HARBOR   N/A    N/A N/A N/A SE5G12      N/A
DILLINGHAM*      N/A     72  64  78 MISG        N/A
KAHUKU TRN*      N/A     72  63  73 CALM        N/A
KAWAILOA*        N/A     70  64  83 E13G22      N/A
KII*             N/A     75  68  78 E16         N/A
MAKUA RANGE*     N/A     84  72  65 E3G18       N/A
OAHU FOREST NW NOT AVBL
SCHOFIELD BRK*   N/A     75  72  88 CALM        N/A
SCHOFIELD S*   NOT AVBL
WAIANAE VLY*     N/A     82  72  69 SW5G15      N/A
KUAOKALA*        N/A     72  64  78 NE9G25      N/A
HONOULIUULI*   NOT AVBL
MOKUOLOE IS*   NOT AVBL
PALEHUA*         N/A     64  63  94 NE7G16      N/A
WAIAWA PHB*    NOT AVBL
$$

HIZ012>013-020900-
MOLOKAI-

CITY           SKY/WX    TMP DP  RH WIND       PRES   REMARKS
MOLOKAI AIRPT  CLEAR     73  64  73 NE9       30.12S
KALAUPAPA      NOT AVBL
MAKAPULAPAI*     N/A     75  66  73 E21G29      N/A
MOLOKAI 1*     NOT AVBL
PUU ALII*        N/A     57  56  97 N3G14       N/A
$$

HIZ016-020900-
KAHOOLAWE-

CITY           SKY/WX    TMP DP  RH WIND       PRES   REMARKS
KAHOOLAWE*       N/A     68 N/A N/A E1          N/A
HAKIOAWA*        N/A     70  65  84 MISG      30.53R
HONOKANAIA*      N/A     76  64  67 NE15G31   30.03R
KANELOA*         N/A     73  66  78 E18G28    30.15S
KEALIALALO*    NOT AVBL
LUA MAKIKA*    NOT AVBL
$$

HIZ014>015-020900-
LANAI-

CITY           SKY/WX    TMP DP  RH WIND       PRES   REMARKS
LANAI CITY     FAIR      69  63  81 NE14      30.15R
LANAI 1*       NOT AVBL
$$

HIZ017>028-020900-
MAUI-

CITY           SKY/WX    TMP DP  RH WIND       PRES   REMARKS
KAHULUI        PTCLDY    74  66  76 NE12      30.12R
KAPALUA-W MAUI NOT AVBL
HANA AIRPORT   NOT AVBL
HANA*            N/A     70 N/A N/A S3          N/A
HALEAKALA SUMM   N/A     45  12  26 E21         N/A
MAALAEA BAY*     N/A     75 N/A N/A VRB20G30    N/A
HALEAKALA*     NOT AVBL
KAUPO GAP*       N/A     64  57  77 NE6G21      N/A
KULA 1*          N/A     48  32  53 NE5         N/A
$$

HIZ023>026-020900-
BIG ISLAND OF HAWAII COAST AND LOWER SLOPES-

CITY           SKY/WX    TMP DP  RH WIND       PRES   REMARKS
KAILUA KONA    CLEAR     77  63  61 NE12      30.06R
HILO           MOCLDY    73  69  87 CALM      30.13R
HONOKAA*         N/A     68 N/A N/A VRB1        N/A
KAWAIHAE MWT*    N/A     79 N/A N/A W6          N/A
KAWAIHAE*        N/A     79 N/A N/A S10       30.06S
SOUTH POINT*     N/A     70 N/A N/A VRB15G22    N/A
UPOLU AIRPORT*   N/A    N/A N/A N/A NE21G30     N/A
KAMUELA*       PTSUNNY   63  61  94 NE21      30.17R
HAKALAU*         N/A     45  37  76 SW3         N/A
KALOKO-HONOKO*   N/A     73  63  68 NE6       30.05R
PALI 2*          N/A     64  57  77 S16G22      N/A
KEALAKOMO*       N/A     75  64  69 NE14G23     N/A
KAUPULEHU*       N/A     68  59  73 SE7         N/A
KAPAPALA*        N/A     62  59  89 N3          N/A
LOWER KAHUKU*    N/A     61 N/A N/A N1G8        N/A
PUHE CS*         N/A     77  63  61 S2          N/A
PUHO CS*         N/A     75  65  70 E1          N/A
PTA KEAMUKU*     N/A     57  52  82 CALM        N/A
WAIKOLOA*        N/A     72  61  68 NE14G25     N/A
$$

HIZ027>028-020900-
BIG ISLAND OF HAWAII INTERIOR AND SUMMMITS-

CITY           SKY/WX    TMP DP  RH WIND       PRES   REMARKS
BRADSHAW FIELD CLOUDY    51  43  75 SE6       30.38R
MK VISITOR CEN   N/A     54  -6   8 NE15        N/A
MAUNA KEA*       N/A     37 -18   8 E22         N/A  WCI  27
MAUNA LOA*       N/A     45 -18   6 MISG        N/A
MAUNA LOA 1*   NOT AVBL
PTA KIPUKA*      N/A     70  70 100 S5          N/A
PTA RANGE 17*    N/A     55  45  67 E10G21      N/A
PTA WEST*        N/A     55  50  82 N2G9        N/A
NENE CABIN*    NOT AVBL
AHUMOA*          N/A     51  46  82 NE3G10      N/A
PTA PORTABLE*  NOT AVBL
PUU MALI*        N/A     59  14  17 E18G29      N/A
$$

HIC003-020900-
NORTHWEST ISLANDS-

CITY           SKY/WX    TMP DP  RH WIND       PRES   REMARKS
MIDWAY ISLAND  LGT RAIN  72  70  94 E16       30.25R FOG
MIDWAY NOS*      N/A     72 N/A N/A MISG      30.24R
FRENCH FRIGATE NOT AVBL
$$

PHZ110>124-180-020900-
BUOY REPORTS

STATION/POSITION TIME  TEMP    WIND        PRES    WAVE   SWELL
                       AIR SEA DIR/SP/G            HT/PER HT/DIR
                 (UTC) (F)     (DEG/KT/KT) (MB)    (FT/S) (FT/D)
BUOY 51001       0800   77 79   70/ 17/ 23 1020.3R
BUOY 51101       0750   75 76   50/ 16/ 17 1022.3R   7/10   5/ 60
BUOY 51100       NOT AVBL
BUOY 51002       0750   77 78   80/ 17/ 21 1016.9R   8/ 7   5/ 80
BUOY 51003       0750   78 78   60/ 16/ 17 1018.4R   8/ 8   7/ 90
BUOY 51004       0750   79 79   70/ 17/ 19 1017.6R   7/10   3/100
BARBERS PT BUOY  NOT AVBL
WAIMEA BAY BUOY  0804      78                N/A     5/13   3/330
KAILUA BAY BUOY  0811      78                N/A     6/13   3/350
LANAI BUOY       0815      79                N/A     3/17   2/210
BARBERS PT 2     0803      79                N/A     4/12   3/180
PAUWELA MAUI     0809      77                N/A     6/13   3/330
HILO             0812      77                N/A     6/ 8   2/340
KANEOHE BAY BUOY 0806      78                N/A     6/13   3/350
HANALEI KAUAI    NOT AVBL
KAHULUI HARBOR   0800   76 78   60/  5/ 11 1020.1R
HONOLULU HARBOR  0800   78 79   60/  4/  9 1020.3R
KILO NALU        NOT AVBL
HILO HARBOR      0800   73 76  260/  3/  3 1019.9R
MOKUOLOE         0700   77 79   80/ 11/ 15 1019.9R
NAWILIWILI       0800   76 80   30/ 12/ 15 1020.5R
WHOTS BUOY       NOT AVBL
BUOY 51028       NOT AVBL
$$

......................KEY........................................
  SKY/WX - SKY CONDITIONS/PRESENT WEATHER
  TMP    - TEMPERATURE IN FAHRENHEIT
  DWPT   - DEWPOINT IN FAHRENHEIT
  RH     - RELATIVE HUMIDITY IN PERCENT
  WIND   - DIRECTION AND SPEED /MPH FOR ISLANDS...KTS FOR BUOYS/
  PRES   - MEAN SEA LEVEL PRESSURE IN INCHES OF HG
  VSB    - VISIBILITY IN MILES
  HX     - HEAT INDEX
  WCI    - WIND CHILL INDEX
  VRB    - VARIABLE WIND DIRECTION
  N/A    - NOT AVAILABLE




USA.gov is the U.S. government's official web portal to all federal, state and local government web resources and services.